Regional Weather Roundup
Issued by NWS

Home | Current Version | Previous Version | Graphics & Text | Print | Product List | Glossary On
Versions: 1 2 3 4 5 6 7 8 9 10 11 12 13 14 15 16 17 18 19 20 21 22 23 24 25 26 27 28 29 30 31 32 33 34 35 36 37 38 39 40 41 42 43 44 45 46 47 48 49 50
725
ASUS43 KMKX 221810
RWRWI

WISCONSIN REGIONAL WEATHER ROUNDUP
NATIONAL WEATHER SERVICE MILWAUKEE/SULLIVAN WI
1200 PM CST THU FEB 22 2018

NOTE: "FAIR" INDICATES FEW OR NO CLOUDS BELOW 12,000 FEET WITH NO
SIGNIFICANT WEATHER AND/OR OBSTRUCTIONS TO VISIBILITY.

WIZ001-002-006>008-014>016-023>028-221900-
NORTHWEST WISCONSIN

CITY           SKY/WX    TMP DP  RH WIND       PRES   REMARKS
SUPERIOR ARPT  PTSUNNY   18   5  56 NE3       30.59F
6HR MIN TEMP: -12; 6HR MAX TEMP:  18;

ASHLAND        FAIR      19   4  51 CALM      30.59F
6HR MIN TEMP: -10; 6HR MAX TEMP:  19;

HAYWARD        PTSUNNY   24   6  46 SE3       30.54F
6HR MIN TEMP:  -9; 6HR MAX TEMP:  24;

SIREN          CLOUDY    24   6  46 SE3       30.54F
6HR MIN TEMP: -10; 6HR MAX TEMP:  24;

CUMBERLAND     CLOUDY    21   5  49 SE7       30.53F WCI  13
RICE LAKE      CLOUDY    23   8  53 SE10      30.56F WCI  12
6HR MIN TEMP:  -4; 6HR MAX TEMP:  23;

CHETEK         FAIR      24   7  47 SE9       30.55F WCI  15
6HR MIN TEMP:  -1; 6HR MAX TEMP:  24;

LADYSMITH      PTSUNNY   27   9  46 SE3       30.56F
6HR MIN TEMP:   0; 6HR MAX TEMP:  27;

EAU CLAIRE     CLOUDY    24  11  57 E7        30.55F WCI  16
6HR MIN TEMP:   4; 6HR MAX TEMP:  25;

MENOMONIE      CLOUDY    25  10  53 E8        30.56F WCI  16
6HR MIN TEMP:   4; 6HR MAX TEMP:  25;

NEW RICHMOND   CLOUDY    22   8  55 E9        30.54F WCI  12
6HR MIN TEMP:   1; 6HR MAX TEMP:  22;

OSCEOLA        CLOUDY    25   8  48 SE12      30.56F WCI  15
6HR MIN TEMP:   2; 6HR MAX TEMP:  26;

$$

WIZ003>005-009-010-017-018-221900-
NORTH CENTRAL WISCONSIN

CITY           SKY/WX    TMP DP  RH WIND       PRES   REMARKS
MANITOWISH WTR PTSUNNY   24   6  47 SE8       30.54F WCI  15
6HR MIN TEMP:  -7; 6HR MAX TEMP:  24;

ARBOR VITAE    PTSUNNY   27  11  50 SE3       30.54F
6HR MIN TEMP:   0; 6HR MAX TEMP:  27;

WOODRUFF       PTSUNNY   27  11  50 SE3       30.54F
6HR MIN TEMP:   0; 6HR MAX TEMP:  27;

RHINELANDER    CLOUDY    25  10  53 E8        30.54F WCI  16
6HR MIN TEMP:   5; 6HR MAX TEMP:  25;

EAGLE RIVER    FAIR      27   8  46 SE3       30.54F
6HR MIN TEMP:  -2; 6HR MAX TEMP:  27;

LAND O LAKES   PTSUNNY   28   7  40 SE7       30.56F WCI  21
6HR MIN TEMP:  -7; 6HR MAX TEMP:  28; 6HR PCP:  0.07;

PHILLIPS       CLOUDY    25  10  53 E6        30.52F WCI  18
6HR MIN TEMP:  -2; 6HR MAX TEMP:  25;

TOMAHAWK       FAIR      28   9  44 CALM      30.55F
6HR MIN TEMP:   1; 6HR MAX TEMP:  28;

MEDFORD        CLOUDY    23  11  59 E6        30.53F WCI  16
6HR MIN TEMP:   8; 6HR MAX TEMP:  23;

MERRILL        PTSUNNY   26  14  60 SE3       30.57F
6HR MIN TEMP:   5; 6HR MAX TEMP:  26;

$$

WIZ029-030-035-036-043>047-221900-
CENTRAL WISCONSIN

CITY           SKY/WX    TMP DP  RH WIND       PRES   REMARKS
WAUSAU         FAIR      25  11  55 SE9       30.55F WCI  15
6HR MIN TEMP:   6; 6HR MAX TEMP:  25;

MOSINEE        CLOUDY    25  12  58 E7        30.58F WCI  17
MARSHFIELD     PTSUNNY   24  13  62 E10       30.53F WCI  14
6HR MIN TEMP:  11; 6HR MAX TEMP:  24;

STEVENS POINT  PTSUNNY   24  14  66 E10       30.56F WCI  13
6HR MIN TEMP:  12; 6HR MAX TEMP:  24;

WAUPACA        PTSUNNY   31  18  60 E6        30.60F WCI  25
6HR MIN TEMP:  19; 6HR MAX TEMP:  31;

WAUTOMA        CLOUDY    28  19  69 E10       30.59F WCI  19
6HR MIN TEMP:  18; 6HR MAX TEMP:  28;

WISC RAPIDS    CLOUDY    28  15  58 E9        30.57F WCI  19
6HR MIN TEMP:  16; 6HR MAX TEMP:  28;

CAMP DOUGLAS   CLOUDY    28  18  64 E9        30.54F WCI  20
$$

WIZ011>013-019>022-031-037>040-048>050-221900-
NORTHEAST WISCONSIN

CITY           SKY/WX    TMP DP  RH WIND       PRES   REMARKS
ANTIGO         FAIR      24  12  61 E8        30.56F WCI  15
6HR MIN TEMP:   7; 6HR MAX TEMP:  24;

SHAWANO        PTSUNNY   28  17  62 NE6       30.61F WCI  22
6HR MIN TEMP:  17; 6HR MAX TEMP:  28;

OCONTO         CLOUDY    28  19  70 E6        30.64S WCI  21
6HR MIN TEMP:  18; 6HR MAX TEMP:  28;

STURGEON BAY   PTSUNNY   30  20  66 E7        30.63F WCI  23
6HR MIN TEMP:  18; 6HR MAX TEMP:  31;

GREEN BAY      CLOUDY    27  18  69 NE7       30.62F WCI  19
6HR MIN TEMP:  20; 6HR MAX TEMP:  27;

MANITOWOC      CLOUDY    31  19  61 NE8       30.60F WCI  23
APPLETON       CLOUDY    27  16  63 E12       30.57F WCI  16
CLINTONVILLE   CLOUDY    29  18  62 E8        30.60F WCI  21
6HR MIN TEMP:  17; 6HR MAX TEMP:  29;

OSHKOSH        CLOUDY    27  20  75 NE8       30.58F WCI  19
6HR MIN TEMP:  21; 6HR MAX TEMP:  27;

$$

WIZ032>034-041-042-053>061-221900-
SOUTHWEST WISCONSIN

CITY           SKY/WX    TMP DP  RH WIND       PRES   REMARKS
LA CROSSE      CLOUDY    27  17  66 E6        30.55S WCI  20
6HR MIN TEMP:  21; 6HR MAX TEMP:  28;

SPARTA         CLOUDY    28  18  68 NE8       30.55F WCI  19
6HR MIN TEMP:  19; 6HR MAX TEMP:  28;

VIROQUA        CLOUDY    29  20  68 E10       30.48F WCI  20
6HR MIN TEMP:  20; 6HR MAX TEMP:  29;

BOSCOBEL       CLOUDY    31  18  58 NE8       30.53F WCI  23
6HR MIN TEMP:  25; 6HR MAX TEMP:  32;

PRAIRIE DU CHI CLOUDY    31  16  52 E9G16     30.50F WCI  23
6HR MIN TEMP:  24; 6HR MAX TEMP:  31;

PLATTEVILLE    PTSUNNY   32  25  77 E10G20    30.49F WCI  23
6HR MIN TEMP:  24; 6HR MAX TEMP:  32;

$$

WIZ056-057-062-063-064-067-068-221900-
SOUTH CENTRAL WISCONSIN

CITY           SKY/WX    TMP DP  RH WIND       PRES   REMARKS
REEDSBURG      PTSUNNY   28  17  65 E7        30.54F WCI  21
6HR MIN TEMP:  20; 6HR MAX TEMP:  28;

BARABOO/DELLS  CLOUDY    28  19  68 E8        30.54F WCI  20
6HR MIN TEMP:  20; 6HR MAX TEMP:  28;

LONE ROCK      CLOUDY    30  21  69 E10       30.54F WCI  21
6HR MIN TEMP:  24; 6HR MAX TEMP:  30;

MINERAL POINT  CLOUDY    32  27  80 NE10      30.47F WCI  24
MADISON        CLOUDY    30  22  72 E10       30.54F WCI  21
6HR MIN TEMP:  22; 6HR MAX TEMP:  30;

MIDDLETON      CLOUDY    32  23  70 E10       30.53F WCI  23
6HR MIN TEMP:  24; 6HR MAX TEMP:  32;

WATERTOWN      CLOUDY    32  24  71 NE12      30.54F WCI  23
6HR MIN TEMP:  24; 6HR MAX TEMP:  33;

MONROE         CLOUDY    32  25  74 NE10      30.49F WCI  24
JANESVILLE     CLOUDY    36  27  69 E15       30.52F WCI  26
$$

WIZ051-052-058>065-066-070>072-221900-
SOUTHEAST WISCONSIN

CITY           SKY/WX    TMP DP  RH WIND       PRES   REMARKS
MILWAUKEE      PTSUNNY   35  29  78 NE14      30.56F WCI  26
6HR MIN TEMP:  30; 6HR MAX TEMP:  35;

WAUKESHA       CLOUDY    32  25  74 E13       30.56F WCI  22
MILWAUKEE/TIMM CLOUDY    34  25  69 E9        30.57F WCI  26
RACINE         CLOUDY    35  28  75 NE12      30.57F WCI  27
6HR MIN TEMP:  30; 6HR MAX TEMP:  35;

BURLINGTON     FAIR      34  27  77 NE9       30.54F WCI  26
6HR MIN TEMP:  26; 6HR MAX TEMP:  34;

KENOSHA        CLOUDY    35  28  75 NE16      30.55F WCI  25
6HR MIN TEMP:  30; 6HR MAX TEMP:  36;

FOND DU LAC    PTSUNNY   34  20  56 E10       30.58F WCI  26
6HR MIN TEMP:  22; 6HR MAX TEMP:  34;

SHEBOYGAN      CLOUDY    32  24  72 NE13      30.58F WCI  22
6HR MIN TEMP:  23; 6HR MAX TEMP:  34;

WEST BEND      CLOUDY    32  27  80 E12       30.56F WCI  23
JUNEAU         CLOUDY    31  22  68 E12       30.57F WCI  22
6HR MIN TEMP:  21; 6HR MAX TEMP:  31;

$$

LSZ147-162-221900-
LAKE SUPERIOR

STATION/POSITION TIME  TEMP    WIND        PRES    WAVE
                       AIR SEA DIR/SP/G            HT/PER
                 (UTC) (F)     (DEG/KT/KT) (MB)    (FT/S)
DEVILS ISLAND    1800   19     100/  5/  6 1037.8F
SAXON HARBOR     1730   20     310/  2/  3 1035.9F
$$

LMZ867-665-643>646-221900-
LAKE MICHIGAN

STATION/POSITION TIME  TEMP    WIND        PRES    WAVE
                       AIR SEA DIR/SP/G            HT/PER
                 (UTC) (F)     (DEG/KT/KT) (MB)    (FT/S)
NORTHPORT PIER   1740



USA.gov is the U.S. government's official web portal to all federal, state and local government web resources and services.